カタログに戻る

STARLINK-30264

運用中通信VLEO
NORAD 57534·PAYLOAD·🇺🇸 United States

打ち上げ Aug 8, 2023 から Vandenberg Space Force Base

Loading…

次のパス (今後24時間)

TLE

最新Source: CelesTrak SupGP

元期: Sep 15, 2026, 02:59 UTC

1 57534C 23115P   26258.12479167 -.00055775  00000+0 -20205-2 0  2585
2 57534  43.0018 219.0709 0001345 270.8389 258.8963 15.27600857    13

AllMySatでSTARLINK-30264をリアルタイム追跡

Download on the App Store